Temp_Advection
nan nan nan nan nan nan nan nan nan nan nan nan nan nan nan nan nan nan nan nan nan nan nan nan nan nan nan nan nan nan nan nan nan nan nan nan nan nan nan nan nan nan nan nan nan nan nan nan nan
nan 0 0 0 0 -0 0 0 -0 0 -0 0 0 0 -0 -0 -0 0 0 0 0 0 0 0 0 0 1 0 0 0 0 0 -0 0 -0 0 0 -0 -0 -0 0 0 0 -0 -0 -0 -0 -0 nan
nan 0 0 -0 0 -0 0 -0 -0 -0 -0 -0 -0 -0 -0 -0 -0 -0 0 0 0 0 0 0 0 0 0 0 0 0 -0 0 0 0 0 0 0 0 -0 -0 0 0 -0 -0 -0 -0 -0 -0 nan
nan 0 0 -0 0 0 -0 0 -0 -0 -0 -0 -0 -0 -0 -0 0 -0 0 0 -0 0 0 0 1 1 1 0 0 0 0 -0 0 -0 -0 -0 0 0 0 -0 0 0 0 -0 -0 -0 -0 -0 nan
nan -0 0 0 -0 -0 0 0 -0 0 0 -0 -0 -0 -0 0 0 0 -0 0 -0 -1 0 1 1 1 2 1 1 0 1 0 0 -0 0 -0 0 0 0 0 0 -0 0 0 -0 -0 -0 -0 nan
nan 0 -0 -0 -0 -0 0 0 -0 0 -0 0 0 -0 -0 0 0 0 0 0 0 0 0 0 1 1 2 2 1 1 1 0 -0 0 0 -0 0 -0 0 0 0 0 -0 0 0 -0 -0 -0 nan
nan 0 0 -0 -0 0 -0 -0 -0 -0 -0 -0 0 -0 -0 0 0 0 0 0 0 1 0 0 -0 -0 -0 1 1 1 0 1 0 0 0 0 0 0 -0 -0 -0 0 -0 -0 -0 -0 -0 -0 nan
nan 0 -0 -0 -0 0 -0 -0 -0 -0 -0 -0 0 0 -0 0 0 0 0 1 1 1 1 0 0 1 -1 0 1 1 1 0 0 0 0 0 0 0 0 -0 -0 -0 0 -0 -0 -0 -0 -0 nan
nan -0 0 -0 -0 0 -0 -0 -0 -0 -0 -0 -0 0 0 0 0 0 0 0 0 0 0 0 -0 -0 1 1 1 1 1 1 0 0 0 -0 0 0 0 0 -0 -0 -0 -0 -0 -0 -0 -0 nan
nan -0 -0 -0 -0 0 0 -0 -0 -0 -0 -0 -0 0 0 0 0 0 0 0 0 0 0 1 1 1 1 2 1 1 1 1 0 0 0 -0 0 0 0 0 0 0 -0 -0 -0 -0 -0 -0 nan
nan -0 0 -0 0 0 -0 -0 -0 0 -0 -0 -0 -0 0 0 0 0 0 1 1 1 1 0 0 0 -0 2 1 1 0 0 0 0 0 0 -0 0 0 0 0 0 0 -0 -0 -0 -0 -0 nan
nan -0 -0 -0 0 0 -0 -0 -0 -0 -0 -0 -0 -0 -0 -0 0 -0 -1 -1 0 1 1 0 0 -0 -1 -1 0 -0 -0 -0 0 0 0 0 0 0 0 0 0 0 0 0 -0 0 0 0 nan
nan -0 0 0 0 -0 -0 -0 -0 -0 0 1 0 0 -0 0 -0 0 -0 -1 -1 -0 -0 -0 0 -0 0 -0 -0 -0 -0 -0 0 0 0 0 0 0 0 0 0 0 0 0 0 0 0 0 nan
nan 0 0 0 0 -0 -0 -0 -0 -0 0 0 0 0 0 0 -0 0 0 -0 -2 -2 -1 -1 -1 -1 -1 -1 -0 -0 0 0 0 0 0 0 0 0 0 0 0 0 0 -0 0 0 0 0 nan
nan 0 0 -0 -0 -0 -0 -0 -0 -0 0 0 0 -0 0 0 -0 -0 -1 -0 -0 -2 -1 -1 -1 -0 -0 -0 -0 0 0 0 0 0 0 0 0 0 0 0 0 0 -0 -0 0 0 0 0 nan
nan 0 -0 0 -0 0 0 -0 -0 -0 -0 -0 -0 -1 -0 -0 -0 -1 -1 -1 -0 -0 -1 -0 -0 -0 -0 -0 0 0 0 0 -0 0 0 0 0 0 0 0 0 0 -0 0 0 0 0 0 nan
nan -0 -0 -0 -0 -0 0 -0 -0 -0 -0 -0 -0 -0 -1 -1 -1 -1 0 -0 -1 -0 -0 -0 -0 -0 -0 -0 0 0 0 0 0 0 0 0 0 0 0 0 -0 -0 0 0 0 0 0 0 nan
nan -0 -0 -0 -0 -0 0 -0 -0 -0 -0 -0 -0 0 -0 -1 -1 -0 -0 -0 -0 -0 -0 -0 -0 -0 -0 0 0 0 -0 -0 0 -0 0 0 0 0 -0 -0 -0 0 0 0 0 0 0 0 nan
nan 0 -0 -0 0 -0 0 0 -0 -0 -0 -0 -0 -0 -1 -1 0 -0 -0 -0 0 0 0 -0 -0 -0 -0 0 0 -0 -0 -0 -0 0 0 0 0 0 -0 0 0 0 0 0 0 0 0 0 nan
nan 0 -0 0 -0 0 0 0 -0 -0 -0 -0 -0 -0 -1 -0 -0 -0 -0 -0 -0 -0 -0 -0 -0 -0 -0 -0 -0 -0 0 -0 -0 0 0 0 0 0 0 0 0 0 0 0 0 0 -0 -0 nan
nan -0 0 0 -0 0 0 -0 -0 -0 0 -0 -0 -0 -0 -1 -1 -1 -1 -0 -0 -0 -0 -0 0 0 0 -0 -0 -0 -0 -0 -0 -0 -0 0 0 0 0 0 0 0 0 0 0 0 -0 -0 nan
nan 0 0 0 0 -0 -0 0 0 0 -0 -0 -0 -0 -1 -1 -1 -1 -0 -0 -0 -0 0 0 0 0 0 0 -0 -0 -0 -0 0 0 0 0 0 0 0 0 0 0 0 0 0 0 -0 -0 nan
nan -0 0 -0 0 0 0 -0 0 -0 -1 -1 -0 -0 -1 -1 -1 -0 0 -0 0 0 -0 0 0 0 -0 0 -0 0 0 1 1 0 0 0 0 1 0 1 0 0 0 0 0 0 -0 -0 nan
nan -0 -0 -0 0 0 0 0 -0 -0 -0 -0 1 -0 -2 -1 -0 0 0 0 -0 0 0 0 0 0 0 0 0 1 0 0 1 -0 0 0 0 0 1 1 1 0 0 0 0 1 0 -0 nan
nan -0 0 0 -0 0 -0 0 -0 0 0 0 0 0 -1 -0 1 0 -1 -0 0 -0 -0 -0 0 0 0 0 0 1 0 0 0 0 0 0 1 1 1 1 1 1 0 0 -0 0 0 0 nan
nan 0 0 0 0 0 -0 -0 -0 0 0 0 -0 -0 -0 -0 -1 -1 0 0 -0 0 0 0 0 0 0 0 0 0 -0 -1 1 2 0 -0 1 1 1 1 1 1 0 0 0 -0 0 0 nan
nan 0 -0 -1 0 -0 -0 -0 -0 -0 0 0 0 -0 0 -0 -1 -0 -0 0 1 1 1 1 1 0 -0 1 0 0 0 0 1 3 2 0 1 1 1 1 1 0 0 1 0 0 0 0 nan
nan -0 0 0 -0 -0 -0 -0 -0 -0 0 0 0 -0 -0 0 0 0 0 -0 0 1 1 1 0 0 1 1 1 1 1 -0 1 3 1 1 1 1 1 1 1 0 1 0 0 1 0 0 nan
nan -0 -0 0 0 0 0 -0 0 -0 0 0 0 -0 -0 -0 -0 0 0 0 1 1 0 -0 0 1 0 0 1 1 1 0 1 2 2 1 1 1 2 0 1 1 0 0 1 0 0 0 nan
nan nan nan nan nan nan nan nan nan nan nan nan nan nan nan nan nan nan nan nan nan nan nan nan nan nan nan nan nan nan nan nan nan nan nan nan nan nan nan nan nan nan nan nan nan nan nan nan nan
Wind_Speed
2 2 4 3 2 1 3 3 1 3 2 5 1 2 10 9 3 2 1 20 31 34 32 29 28 29 30 30 29 27 25 25 26 26 26 28 28 28 27 26 26 25 25 24 23 21 20 20 20
0 5 4 2 2 3 3 2 2 2 2 3 3 5 6 6 5 6 9 16 33 34 33 31 29 29 29 28 26 25 25 27 29 29 29 30 29 28 27 25 24 24 24 23 22 20 19 17 18
4 5 1 2 2 4 2 2 3 2 3 1 0 10 7 3 4 3 10 17 31 34 33 31 30 29 27 26 25 24 26 29 30 32 33 31 30 27 26 25 24 23 23 21 20 18 17 17 17
4 1 4 2 8 3 4 4 3 2 2 4 6 8 6 8 3 8 14 18 31 32 31 30 28 27 27 27 25 26 28 29 30 32 32 32 30 27 26 25 23 23 22 21 19 18 18 17 16
4 1 1 2 2 5 4 3 3 4 3 4 4 5 5 10 5 11 16 20 27 30 29 26 26 27 27 27 26 27 30 30 31 33 33 32 29 27 24 23 22 21 21 20 18 16 16 15 14
1 2 1 3 4 4 3 2 1 1 1 6 10 8 5 9 7 9 14 18 24 26 29 27 29 28 26 24 26 27 29 29 30 32 33 30 28 26 24 21 19 18 17 17 15 14 14 13 11
1 1 2 2 3 4 2 2 2 2 4 5 3 5 9 11 11 10 12 16 24 26 27 29 30 32 31 20 23 27 27 27 28 30 31 29 27 24 22 20 17 13 12 12 12 11 11 9 10
1 0 1 2 2 4 2 2 4 4 3 4 4 6 7 15 13 13 15 17 22 25 27 31 33 37 41 31 20 23 24 24 27 29 29 27 23 21 19 17 15 13 10 9 9 8 8 8 8
1 1 3 2 2 4 1 2 2 4 6 2 2 6 16 19 13 14 15 14 12 14 18 27 29 45 42 33 23 21 23 25 25 27 26 25 22 19 17 14 12 10 7 7 6 7 7 9 9
2 1 4 4 3 2 2 3 5 3 4 4 10 14 22 19 16 17 16 16 16 18 22 24 36 41 46 42 21 20 20 19 21 25 26 24 20 17 13 12 9 6 5 4 4 4 6 9 8
4 4 4 5 12 4 3 3 4 8 2 7 18 25 22 19 17 18 22 21 21 22 24 40 44 47 40 42 34 35 33 20 23 24 24 22 18 15 13 10 7 6 4 2 2 4 5 7 9
3 10 9 4 2 3 4 7 5 2 2 4 17 20 23 22 21 21 19 17 23 30 41 35 31 37 30 34 42 22 21 22 23 22 20 17 16 14 11 9 8 6 4 1 1 3 6 8 10
5 6 4 7 2 5 6 5 5 5 9 15 17 19 18 22 20 18 21 18 23 31 25 24 30 35 35 27 19 21 22 23 22 19 17 15 13 11 9 7 6 5 3 3 3 6 8 10 11
2 6 10 2 7 7 8 3 3 2 11 14 13 14 12 16 19 20 21 27 31 32 31 33 31 29 26 23 17 19 21 22 20 18 15 13 11 8 6 6 6 6 4 2 6 7 9 10 11
6 3 2 2 5 4 12 5 4 9 12 11 11 13 15 17 20 19 21 26 27 29 29 27 27 24 20 18 19 21 22 21 19 17 14 13 12 10 7 8 7 5 6 5 5 8 9 10 11
2 2 1 0 2 1 3 2 4 11 15 13 13 17 16 15 18 19 19 21 28 27 27 25 23 20 19 18 19 22 23 20 19 17 14 12 10 9 8 8 8 8 7 6 6 7 8 10 10
4 0 2 2 7 4 1 3 10 15 12 15 14 18 18 18 17 19 22 22 26 29 27 25 21 20 20 20 21 24 22 20 18 18 15 12 11 12 12 11 10 9 10 8 7 6 7 7 8
1 1 1 3 4 3 3 1 13 18 16 13 14 16 20 20 21 21 21 23 22 23 23 22 21 21 21 22 23 24 24 22 20 18 16 14 15 15 14 12 13 13 12 9 6 5 5 6 7
2 1 1 1 1 3 7 5 14 19 16 14 15 17 21 26 22 23 25 25 24 26 25 24 23 21 24 27 27 27 25 24 23 21 20 17 17 16 16 16 16 15 11 8 6 5 5 6 8
3 1 0 2 4 4 2 4 5 15 19 20 18 18 23 26 25 26 26 29 31 30 29 28 26 26 27 28 26 25 25 26 24 22 20 19 19 18 19 19 18 15 11 9 6 4 2 6 9
4 3 3 2 2 3 3 2 5 8 14 13 19 20 22 25 27 28 30 31 33 33 31 31 31 30 30 30 28 26 25 26 28 24 22 21 21 21 22 22 18 15 12 9 5 3 5 9 16
3 8 2 4 2 2 1 3 4 7 10 13 20 23 28 29 31 29 31 34 35 34 33 33 33 34 34 32 32 31 31 31 30 25 22 23 23 24 25 22 19 16 12 7 5 6 12 16 16
5 4 2 3 3 1 1 1 3 1 10 17 25 26 29 31 33 33 35 35 35 33 33 34 34 35 35 34 33 31 32 31 25 26 26 26 26 26 26 25 23 19 16 11 7 11 19 27 30
6 2 6 3 2 1 2 3 3 4 10 10 21 25 34 35 38 37 35 35 38 35 34 34 35 35 35 34 33 32 33 31 30 30 31 29 28 29 29 27 24 22 19 15 18 23 20 25 19
3 3 2 1 1 3 2 2 7 7 6 9 13 21 33 40 40 41 41 39 38 38 37 36 35 36 35 34 34 32 35 34 34 36 33 31 31 28 32 31 27 24 18 17 15 15 21 19 12
3 5 4 3 3 2 1 4 4 4 7 13 14 16 18 28 37 44 44 42 42 40 38 38 38 38 37 36 33 34 36 36 37 37 37 35 33 29 30 30 27 22 16 16 15 15 18 11 16
4 3 1 6 2 1 2 4 9 2 3 5 6 5 7 14 24 30 35 43 42 41 38 38 38 39 38 37 35 31 36 38 36 35 37 37 35 32 32 31 27 18 26 16 12 13 10 14 15
2 7 3 1 4 3 2 3 3 5 5 3 6 8 6 5 9 17 23 29 34 40 35 35 35 36 37 38 38 37 34 36 31 32 35 39 38 33 34 31 23 25 17 12 15 11 9 18 14
3 2 3 4 2 3 3 4 6 6 4 5 7 7 6 4 6 8 13 17 19 24 27 27 29 32 34 37 35 36 34 30 29 30 35 38 37 35 34 30 27 19 15 16 11 9 15 15 14
3 4 4 3 4 1 1 5 3 9 6 8 10 5 2 2 5 4 6 9 10 11 14 20 23 24 25 28 32 31 31 33 30 30 32 30 30 34 33 31 26 23 17 14 11 11 13 14 16
Wind_Direction
306 219 170 154 198 338 246 244 263 280 243 15 300 129 106 53 53 148 255 180 179 173 170 167 165 165 165 160 156 150 146 142 142 137 133 131 130 127 124 120 114 108 102 99 96 95 92 92 93
183 167 156 136 179 220 231 257 276 285 319 339 27 104 78 82 64 115 141 163 171 171 168 168 168 168 165 158 153 148 143 143 140 139 135 135 133 128 124 119 115 107 103 97 96 95 92 91 88
168 175 186 117 131 231 209 223 1 115 73 233 10 53 54 40 80 140 158 165 171 170 169 169 171 170 163 157 152 147 147 145 142 141 138 137 132 128 122 119 113 109 104 101 99 96 93 90 86
176 174 55 239 239 279 251 263 289 232 158 116 109 80 85 43 111 130 147 160 170 170 170 172 173 168 163 157 153 152 149 148 143 141 140 137 133 129 124 119 115 111 108 103 101 97 92 86 79
191 48 16 314 303 260 246 280 260 195 145 96 138 94 87 83 114 136 158 164 178 173 173 174 169 170 162 156 154 154 150 147 146 144 145 140 134 130 125 122 119 114 111 110 108 100 87 81 74
37 67 341 292 262 263 297 284 276 143 122 110 103 109 98 121 140 156 181 179 180 183 178 165 167 160 159 152 146 151 149 149 147 148 147 142 138 133 130 126 122 120 116 112 112 98 83 75 69
80 111 243 275 292 312 354 80 27 36 59 41 100 101 137 150 146 164 188 189 188 192 185 173 163 161 136 142 146 151 150 145 151 150 148 146 144 140 137 133 130 124 112 108 105 86 74 65 54
220 93 269 254 330 306 21 75 119 40 69 107 137 145 149 158 154 167 167 172 173 182 182 173 166 157 141 135 148 150 142 147 147 148 151 151 147 149 143 141 138 131 120 107 96 71 63 49 38
164 354 306 268 259 317 345 107 78 106 111 51 31 128 154 162 163 175 173 158 155 154 162 159 158 135 132 136 151 144 141 144 142 153 155 155 158 155 151 143 143 128 119 98 86 55 42 23 22
142 214 242 222 229 251 351 153 151 131 140 83 108 132 152 149 160 154 154 156 162 163 166 169 159 152 142 137 136 135 136 143 160 157 160 161 162 157 154 153 147 137 119 93 60 32 15 0 359
185 222 209 251 252 232 151 169 144 142 194 194 157 147 152 144 149 154 139 139 146 151 162 156 147 144 139 142 147 135 160 163 161 163 165 165 169 168 167 161 162 162 136 117 32 2 340 340 333
247 249 250 308 321 142 174 135 98 37 327 170 156 148 149 139 149 145 136 137 144 146 146 148 151 149 150 165 153 172 169 169 171 168 168 171 177 175 170 172 160 156 159 185 345 314 317 314 323
226 272 291 289 232 99 128 73 107 40 110 141 149 150 149 157 156 138 137 141 153 155 163 167 146 150 157 163 175 170 173 179 172 167 166 173 174 179 182 177 175 180 203 265 304 310 313 312 311
264 278 303 219 145 133 116 138 60 116 128 141 143 146 156 157 153 158 157 151 149 155 149 146 152 160 164 182 182 181 184 177 176 177 180 183 183 184 191 199 199 212 231 273 299 304 309 313 315
282 299 2 111 171 164 141 61 38 149 149 156 154 158 162 170 172 176 171 166 161 151 155 156 161 173 178 179 189 187 180 182 186 187 188 195 188 199 214 210 207 224 232 256 291 309 310 310 312
343 104 255 346 192 85 287 115 176 175 166 174 174 169 172 170 178 179 176 172 182 174 167 172 179 186 191 190 192 187 187 190 198 198 199 200 208 216 225 217 219 223 238 261 277 289 302 310 312
22 314 80 187 190 149 223 141 190 193 186 180 188 185 184 188 185 186 185 180 181 189 189 190 191 195 196 195 193 191 194 201 199 203 206 219 228 231 220 219 212 220 240 245 267 301 313 316 319
340 359 309 235 171 148 183 165 173 192 197 196 197 202 203 203 196 196 194 194 189 189 195 199 203 203 201 197 196 198 207 208 210 212 215 229 232 223 222 218 214 223 233 245 274 294 313 323 320
145 184 233 261 217 152 207 193 194 192 205 209 207 207 212 216 211 207 204 205 204 204 204 203 206 206 203 201 202 205 209 210 212 215 218 228 226 226 222 217 221 225 237 250 270 303 326 330 341
163 177 282 301 340 193 166 227 194 200 217 211 209 211 215 220 222 222 222 215 212 214 213 212 209 210 209 208 210 214 216 219 222 223 223 234 228 223 220 220 225 232 244 257 276 291 333 340 334
172 174 204 240 97 64 137 231 190 211 229 225 227 223 226 225 225 225 222 220 216 215 215 215 214 213 215 214 215 222 223 224 224 221 232 230 221 220 223 225 230 240 247 263 282 286 317 330 329
206 177 193 96 182 183 304 264 251 201 216 233 235 226 227 226 226 225 223 221 220 218 218 219 219 218 220 222 224 227 226 225 225 229 232 225 222 223 224 230 235 243 253 264 261 288 328 333 333
250 128 164 114 128 138 163 227 287 78 229 232 231 232 234 232 230 229 228 226 226 223 220 219 221 222 225 226 229 233 231 235 239 232 230 226 225 226 230 234 238 242 248 244 253 315 317 323 316
147 148 57 61 113 190 149 193 274 199 224 243 235 231 236 236 237 237 235 232 229 228 226 225 224 224 227 227 231 235 234 238 238 238 232 228 229 232 232 234 238 243 243 245 288 296 319 322 304
105 71 315 217 110 204 83 155 244 248 244 248 252 232 239 239 237 238 237 235 233 231 228 229 230 231 232 232 233 237 237 241 244 246 241 238 240 244 238 240 242 245 247 272 281 298 314 298 282
168 160 177 216 187 168 145 220 230 225 257 269 269 267 256 248 245 242 241 241 240 239 236 234 233 235 237 238 239 241 241 245 250 246 246 247 245 252 247 242 240 236 252 276 279 313 298 274 290
144 186 131 105 23 241 231 265 273 202 322 344 317 284 275 248 240 243 243 244 244 244 239 239 238 237 243 244 242 248 249 250 260 259 246 246 248 249 246 239 233 233 276 265 278 295 268 301 286
154 135 146 44 170 234 266 289 247 294 308 342 318 311 311 304 259 243 241 242 244 248 246 243 244 246 249 250 248 246 248 246 265 256 248 247 248 245 243 235 231 270 244 257 280 253 296 301 272
143 174 60 116 138 196 236 247 219 239 247 275 293 291 267 265 254 255 246 246 247 250 247 245 243 250 250 253 253 254 254 255 262 257 251 251 251 244 242 233 254 244 236 258 243 265 305 277 251
153 174 161 138 196 162 239 256 228 244 271 252 274 312 300 245 238 229 225 223 225 230 235 239 243 248 256 260 259 260 260 259 262 262 257 253 255 247 236 238 239 229 248 236 246 298 282 264 247
Height
1516 1516 1516 1516 1520 1521 1518 1511 1510 1508 1507 1506 1503 1502 1500 1509 1507 1516 1515 1515 1519 1525 1530 1536 1540 1543 1545 1548 1551 1553 1554 1556 1559 1562 1567 1568 1571 1571 1575 1576 1577 1579 1579 1580 1581 1581 1583 1584 1584
1515 1516 1516 1515 1518 1520 1513 1512 1508 1508 1510 1509 1504 1504 1505 1510 1513 1515 1516 1517 1520 1525 1530 1535 1538 1542 1546 1548 1551 1553 1555 1557 1559 1564 1566 1570 1572 1574 1575 1578 1580 1581 1581 1582 1582 1584 1586 1587 1586
1515 1516 1517 1515 1521 1516 1514 1511 1506 1506 1507 1508 1508 1506 1505 1514 1515 1517 1516 1519 1522 1526 1530 1535 1538 1542 1546 1549 1552 1554 1556 1559 1561 1565 1567 1572 1573 1575 1577 1580 1582 1583 1583 1585 1586 1587 1588 1589 1588
1516 1517 1519 1516 1514 1517 1513 1507 1508 1507 1506 1507 1508 1511 1515 1512 1516 1517 1518 1520 1522 1527 1531 1535 1539 1544 1547 1550 1552 1554 1556 1561 1563 1566 1568 1573 1573 1577 1579 1582 1583 1584 1586 1586 1589 1590 1590 1591 1590
1516 1516 1517 1519 1521 1512 1509 1508 1506 1504 1504 1506 1507 1513 1517 1517 1516 1517 1519 1521 1524 1527 1532 1536 1540 1544 1548 1550 1552 1556 1557 1561 1565 1566 1570 1575 1576 1579 1580 1582 1584 1586 1587 1589 1590 1592 1591 1592 1592
1517 1518 1519 1518 1514 1509 1507 1507 1506 1507 1507 1506 1508 1512 1516 1518 1517 1519 1520 1522 1525 1527 1530 1532 1537 1542 1547 1549 1551 1558 1560 1563 1566 1568 1573 1577 1580 1582 1582 1583 1585 1587 1589 1590 1592 1593 1593 1594 1594
1518 1518 1518 1520 1514 1509 1507 1506 1507 1508 1508 1509 1509 1512 1517 1518 1517 1519 1521 1522 1525 1527 1528 1529 1533 1537 1545 1557 1556 1561 1565 1564 1568 1572 1576 1579 1582 1583 1585 1585 1587 1589 1590 1591 1593 1594 1593 1595 1595
1518 1518 1518 1518 1514 1510 1507 1507 1508 1509 1511 1509 1509 1510 1515 1517 1515 1520 1520 1523 1523 1526 1526 1528 1530 1532 1537 1549 1563 1566 1565 1568 1570 1574 1577 1581 1584 1585 1585 1587 1588 1589 1591 1592 1594 1595 1595 1596 1595
1518 1519 1517 1515 1513 1508 1508 1508 1509 1510 1511 1510 1510 1511 1512 1514 1518 1518 1522 1523 1525 1527 1529 1532 1519 1535 1542 1549 1564 1566 1565 1569 1571 1574 1579 1582 1585 1586 1587 1588 1590 1590 1592 1593 1594 1595 1596 1596 1594
1517 1520 1514 1510 1508 1506 1508 1508 1510 1511 1511 1511 1510 1512 1514 1516 1520 1520 1523 1525 1527 1528 1531 1532 1536 1537 1540 1547 1560 1565 1567 1570 1574 1577 1579 1581 1586 1586 1589 1590 1590 1591 1593 1594 1594 1595 1595 1595 1595
1515 1512 1508 1506 1505 1507 1506 1508 1508 1511 1511 1510 1509 1512 1514 1516 1520 1524 1526 1527 1527 1529 1531 1534 1535 1538 1544 1549 1559 1567 1573 1575 1576 1578 1580 1581 1586 1586 1587 1588 1590 1591 1593 1594 1595 1594 1595 1595 1595
1514 1507 1505 1505 1504 1505 1505 1505 1509 1512 1510 1509 1513 1515 1516 1520 1523 1526 1529 1530 1533 1534 1535 1537 1542 1545 1552 1558 1565 1570 1573 1575 1578 1579 1581 1584 1585 1587 1588 1589 1590 1592 1594 1595 1594 1595 1594 1594 1592
1511 1505 1503 1504 1504 1504 1506 1507 1509 1512 1512 1511 1516 1517 1519 1522 1524 1529 1533 1535 1533 1538 1541 1542 1547 1552 1556 1562 1567 1570 1573 1576 1577 1580 1581 1584 1585 1587 1589 1589 1590 1592 1594 1595 1594 1594 1593 1593 1592
1507 1505 1504 1503 1504 1504 1506 1510 1509 1515 1516 1516 1517 1519 1522 1524 1527 1531 1534 1536 1537 1540 1543 1546 1551 1556 1558 1563 1566 1570 1573 1575 1577 1579 1581 1583 1584 1586 1588 1589 1590 1592 1593 1592 1593 1593 1593 1591 1591
1506 1505 1505 1505 1506 1505 1506 1509 1514 1516 1517 1517 1517 1520 1523 1525 1528 1530 1534 1537 1539 1541 1545 1548 1552 1557 1559 1562 1566 1569 1572 1574 1577 1578 1579 1583 1584 1586 1588 1589 1589 1590 1591 1591 1591 1592 1591 1590 1589
1505 1505 1506 1505 1505 1505 1506 1515 1518 1518 1518 1518 1518 1520 1523 1526 1528 1531 1534 1537 1540 1543 1546 1550 1553 1556 1559 1562 1565 1567 1570 1573 1576 1577 1579 1582 1583 1585 1587 1587 1587 1590 1590 1590 1590 1590 1589 1589 1588
1508 1506 1506 1507 1503 1505 1506 1513 1515 1518 1519 1519 1519 1521 1524 1526 1529 1531 1534 1537 1540 1543 1546 1549 1552 1555 1558 1561 1563 1567 1569 1572 1573 1576 1578 1580 1581 1585 1586 1585 1583 1585 1590 1589 1589 1588 1587 1586 1587
1512 1509 1507 1504 1502 1504 1506 1510 1514 1516 1517 1518 1521 1522 1524 1525 1527 1530 1534 1537 1539 1543 1545 1548 1551 1554 1557 1559 1562 1564 1567 1568 1572 1574 1576 1577 1580 1582 1584 1582 1582 1583 1588 1586 1586 1585 1585 1584 1584
1506 1509 1508 1503 1501 1504 1505 1507 1511 1513 1517 1518 1519 1521 1522 1523 1526 1528 1532 1535 1538 1541 1543 1545 1548 1551 1554 1556 1559 1561 1563 1566 1569 1571 1573 1575 1577 1578 1578 1580 1581 1583 1584 1583 1583 1582 1582 1581 1581
1505 1508 1507 1504 1504 1502 1506 1508 1510 1513 1510 1513 1515 1518 1519 1520 1523 1525 1528 1531 1534 1537 1540 1542 1545 1548 1551 1554 1558 1560 1562 1564 1567 1567 1569 1571 1572 1574 1575 1577 1580 1580 1580 1580 1580 1579 1578 1578 1578
1503 1507 1507 1505 1505 1506 1506 1507 1508 1510 1512 1512 1512 1515 1517 1518 1520 1522 1523 1525 1528 1531 1534 1538 1542 1545 1548 1551 1554 1556 1559 1561 1562 1562 1565 1566 1568 1569 1573 1576 1576 1576 1576 1576 1577 1578 1576 1572 1573
1504 1496 1502 1503 1506 1508 1507 1511 1506 1506 1507 1507 1506 1509 1509 1512 1514 1517 1519 1521 1522 1526 1531 1534 1537 1540 1544 1547 1550 1551 1553 1554 1557 1560 1561 1563 1564 1566 1569 1571 1571 1572 1572 1573 1574 1574 1574 1573 1570
1497 1496 1498 1501 1507 1510 1512 1511 1498 1505 1503 1498 1498 1499 1502 1505 1508 1510 1512 1516 1520 1524 1526 1529 1532 1536 1538 1542 1545 1548 1549 1551 1554 1557 1558 1559 1560 1562 1564 1565 1565 1565 1566 1567 1567 1570 1569 1568 1566
1495 1497 1499 1507 1509 1515 1512 1510 1501 1500 1491 1487 1489 1493 1493 1496 1499 1502 1507 1511 1514 1518 1521 1524 1527 1530 1533 1536 1539 1541 1544 1546 1549 1551 1552 1553 1555 1557 1559 1559 1559 1560 1560 1560 1561 1560 1564 1561 1560
1492 1497 1511 1514 1517 1516 1513 1512 1495 1485 1487 1486 1484 1485 1485 1488 1491 1494 1497 1500 1505 1509 1514 1518 1521 1524 1527 1530 1532 1535 1538 1540 1543 1545 1546 1547 1548 1550 1552 1553 1554 1556 1557 1558 1556 1555 1557 1555 1555
1494 1494 1510 1520 1522 1512 1514 1510 1489 1483 1483 1482 1480 1479 1480 1481 1483 1486 1488 1493 1497 1501 1507 1511 1514 1518 1520 1523 1526 1528 1531 1534 1536 1539 1541 1542 1543 1545 1547 1549 1550 1551 1553 1551 1555 1549 1550 1551 1550
1494 1500 1499 1515 1529 1520 1508 1499 1485 1481 1479 1478 1478 1475 1474 1474 1476 1478 1483 1486 1490 1494 1499 1504 1509 1512 1514 1517 1521 1523 1526 1529 1531 1532 1534 1537 1538 1540 1543 1544 1544 1545 1546 1547 1547 1546 1547 1547 1546
1487 1493 1503 1508 1515 1518 1508 1507 1492 1480 1478 1477 1477 1475 1472 1471 1472 1473 1476 1480 1485 1488 1495 1500 1505 1507 1509 1513 1516 1519 1521 1523 1525 1525 1528 1530 1533 1535 1536 1539 1541 1541 1541 1543 1541 1542 1543 1542 1542
1492 1493 1501 1499 1506 1506 1511 1500 1482 1479 1476 1475 1474 1475 1473 1472 1471 1472 1475 1478 1482 1485 1489 1495 1499 1502 1505 1507 1511 1512 1514 1516 1517 1518 1520 1523 1526 1526 1529 1533 1535 1537 1537 1535 1538 1538 1538 1536 1536
1479 1484 1491 1498 1505 1515 1513 1499 1475 1474 1474 1474 1472 1473 1472 1472 1471 1471 1473 1476 1479 1483 1486 1490 1494 1498 1501 1504 1506 1507 1508 1510 1511 1511 1513 1515 1516 1519 1524 1527 1528 1528 1529 1533 1534 1534 1534 1533 1531